Погода в Уладые

Россия / Республика Бурятия     50°10′31″N   107°38′31″E
темп.,
°C
ветер,
м/с
пор.,
м/с
влажн.,
%
обл.,
%
осадки,
мм/ч
давл.,
гПа
погр.,
м
28 июня, вт
вт2823:00+16вюв01555 0.0 100611
02:00+16юв01570 0.0 100611
05:00+15юв11622 0.0 100612
08:00+23ю22432 0.0 1005313
11:00+27ююз323085 0.0 10031609
14:00+29ююз322448 0.0 10012813
17:00+29юз32222 0.0 10002889
20:00+22в22490 0.0 100119
29 июня, ср
ср2923:00+18вюв115111 0.0 100313
02:00+17юв12532 0.0 100416
05:00+16вюв11600 0.1 100511
08:00+24св01401 0.1 1005307
11:00+29зсз13300 0.0 10032425
14:00+29ссз443128 0.0 10012498
17:00+14в41093100 3.3 1006430
20:00+15юв2285100 12.4 100532
30 июня, чт
чт3023:00+13в22823 0.0 100522
02:00+13юв229132 0.3 100527
05:00+13вюв228849 0.3 100418
08:00+19ююз127099 0.3 1004166
11:00+24ююз374499 0.0 1004831
14:00+24юз3547100 0.0 1004879
17:00+27ю354491 0.0 10021604
20:00+15ссв0193100 3.3 100612
1 июля, пт
пт123:00+15юв2290100 2.3 100621
02:00+13ююв2293100 2.8 100722
05:00+14вюв118885 0.2 100611
08:00+19ююз127533 0.3 1006206
11:00+25юз3442100 0.0 10041240
14:00+27ююз323619 0.0 10022111
17:00+27зюз34360 0.0 10012097
20:00+22ю115516 0.0 100112
2 июля, сб
сб223:00+18юв11600 0.0 100215
02:00+17вюв11606 0.0 100213
05:00+16юв226743 0.0 100216
08:00+24юв124977 0.0 1000247
11:00+29ююв222991 0.0 9981221
14:00+32ююв232280 0.0 9972244
17:00+29сз1140100 0.0 99644
20:00+24сз115346 0.0 99711